Regional Weather Roundup
Issued by NWS

Home | Current Version | Previous Version | Graphics & Text | Print | Product List | Glossary Off
Versions: 1 2 3 4 5 6 7 8 9 10 11 12 13 14 15 16 17 18 19 20 21 22 23 24 25 26 27 28 29 30 31 32 33 34 35 36 37 38 39 40 41 42 43 44 45 46 47 48 49 50

000
ASUS43 KDMX 151906
RWRIA

WEATHER ROUNDUP FOR IOWA
NATIONAL WEATHER SERVICE DES MOINES IA
100 PM CST FRI DEC 15 2017

NOTE: "FAIR" INDICATES FEW OR NO CLOUDS BELOW 12,000 FEET WITH NO
SIGNIFICANT WEATHER AND/OR OBSTRUCTIONS TO VISIBILITY.

* - THESE STATIONS ARE NOT NWS STATIONS...THUS NOT UNDER NWS
QUALITY CONTROL.  THEY ALSO DO NOT REPORT WEATHER SUCH
AS PRECIPITATION OR FOG.

IAZ001>003-012>014-020>022-031>034-043>046-152000-
   NORTHWEST IOWA

CITY           SKY/WX    TMP DP  RH WIND       PRES   REMARKS
CARROLL *      PTSUNNY   45  23  42 W25       29.88F
CHEROKEE *     MOSUNNY   44  24  44 W17       29.84F
DENISON *      PTSUNNY   43  23  45 SW17G26   29.90F
LE MARS *      MOSUNNY   43  25  49 SW12G17   29.84F
ORANGE CITY *  SUNNY     43  27  52 SW14      29.82F
SHELDON *      CLOUDY    41  25  52 W15       29.80F
SIOUX CITY     CLOUDY    43  25  49 SW15      29.86F
SPENCER        PTSUNNY   41  26  55 W15G22    29.82F
STORM LAKE *   MOSUNNY   43  23  45 SW18G28   29.83F
$$

IAZ055>058-069>071-079>083-090>094-152000-
   SOUTHWEST IOWA

CITY           SKY/WX    TMP DP  RH WIND       PRES   REMARKS
ATLANTIC *     SUNNY     45  23  42 SW22G29   29.92F
AUDUBON *      MOSUNNY   43  21  42 W18G28    29.91F
CLARINDA *     SUNNY     45  21  39 SW20        N/A
COUNCIL BLFS * SUNNY     43  27  52 SW20G31   29.93F
CRESTON *      SUNNY     43  19  39 SW20G30   29.95F
HARLAN  *      PTSUNNY   43  23  45 SW23      29.94F
LAMONI         SUNNY     43  20  39 W21G29    29.97F
RED OAK *      CLOUDY    45  21  39 SW23      29.95F
SHENANDOAH *   CLOUDY    45  21  39 SW22G30   29.98F
$$

IAZ047>049-059>061-072>074-084-152000-
   CENTRAL IOWA

CITY           SKY/WX    TMP DP  RH WIND       PRES   REMARKS
AMES           CLOUDY    42  24  49 W22G29    29.90F
ANKENY *       CLOUDY    43  25  49 W14G21    29.93F
BOONE *        MOSUNNY   43  23  45 W21G26    29.88F
CHARITON *     MOSUNNY   41  21  45 W16G28    29.95F
DES MOINES     CLOUDY    43  21  41 W23G32    29.92F
GRINNELL*      CLOUDY    39  26  59 W16G25    29.93F WCI  30
KNOXVILLE *    CLOUDY    45  21  39 W16G24    29.92F
MARSHALLTOWN   CLOUDY    40  26  57 W16       29.89F WCI  31
NEWTON *       MOSUNNY   41  25  52 W15G25    29.92F
PELLA *        CLOUDY    42  23  47 W16G28    29.95F
PERRY *          N/A     43  21  41 W24G32    29.91F
$$

IAZ004>006-015-016-023>025-035-036-152000-
   NORTH CENTRAL IOWA

CITY           SKY/WX    TMP DP  RH WIND       PRES   REMARKS
ALGONA *       SUNNY     41  28  60 W17       29.83F
CLARION *      PTSUNNY   41  28  60 W14G20    29.86F
ESTHERVILLE    MOSUNNY   38  28  67 W14       29.81F WCI  30
FORT DODGE *   CLOUDY    42  25  50 W17       29.86F
MASON CITY     PTSUNNY   37  28  70 W16       29.85F WCI  28
FOREST CITY *  PTSUNNY   39  30  70 W12       29.82F WCI  32
WEBSTER CITY * CLOUDY    43  25  49 W20       29.85F
IOWA FALLS *   CLOUDY    39  28  64 W16G23    29.89F WCI  30
$$

IAZ007>011-017>019-026>030-037>042-050>054-066-152000-
   NORTHEAST IOWA

CITY           SKY/WX    TMP DP  RH WIND       PRES   REMARKS
CEDAR RAPIDS   CLOUDY    37  26  64 W17       29.90F WCI  27
CHARLES CITY * CLOUDY    36  32  87 W12       29.85F WCI  27
CLINTON *      CLOUDY    33  22  63 W20       29.91F WCI  21
DECORAH *      CLOUDY    32  28  86 W7        29.83F WCI  26
DUBUQUE        CLOUDY    30  25  81 W15       29.88F WCI  19
MONTICELLO *   CLOUDY    34  25  69 W15       29.90S WCI  24
OELWEIN *      CLOUDY    34  30  86 W16       29.87F WCI  23
WATERLOO       CLOUDY    37  26  64 W13       29.88F WCI  29
$$

IAZ064-065-067-068-078-152000-
   EAST CENTRAL IOWA

CITY           SKY/WX    TMP DP  RH WIND       PRES   REMARKS
DAVENPORT      CLOUDY    34  21  59 SW16G25   29.95F WCI  24
IOWA CITY      CLOUDY    38  25  59 W16       29.95F WCI  29
MT. PLEASANT * CLOUDY    37  22  54 SW12G18   29.97F WCI  29
MUSCATINE *    CLOUDY    37  23  56 SW16G23   29.96F WCI  28
QUAD CITIES    CLOUDY    36  22  56 SW12      29.94F WCI  28
$$

IAZ062-063-075>077-085>089-095>099-152000-
   SOUTHEAST IOWA

CITY           SKY/WX    TMP DP  RH WIND       PRES   REMARKS
BURLINGTON     CLOUDY    38  22  52 SW15      29.97F WCI  29
FAIRFIELD *    CLOUDY    39  21  48 SW15      29.95F WCI  31
FORT MADISON * CLOUDY    37  21  52 SW9G16    29.98F WCI  31
KEOKUK *       CLOUDY    39  21  48 SW17      29.98F WCI  30
OSKALOOSA *    PTSUNNY   40  23  50 W20       29.95F WCI  30
OTTUMWA        CLOUDY    41  21  44 W15G25    29.94F
WASHINGTON *   CLOUDY    37  25  60 SW16      29.96F WCI  28
$$

ABBREVIATIONS USED IN REMARKS
   TC - TEMPERATURES IN CELSIUS
  WCI - WIND CHILL INDEX
   HX - HEAT INDEX
  VSB - VISIBILITY
$$




USA.gov is the U.S. government's official web portal to all federal, state and local government web resources and services.